This is the latest recevied weather packets stored in our database for station/object KD4WXI. If no packets are shown the sender has not sent any weather packets the latest 10 day(s).
| Time | Temp. | Humidity | Pressure | Rain* | Wind** | Luminosity | Snow |
|---|---|---|---|---|---|---|---|
| 1777512435 | 17.78° C | 96% | 1009.3 hPa | 0 mm | - | 0 W/m² | - |
| 1777512132 | 17.78° C | 94% | 1009 hPa | 0 mm | - | 0 W/m² | - |
| 1777511830 | 18.33° C | 94% | 1009.3 hPa | 0 mm | - | 0 W/m² | - |
| 1777511527 | 18.89° C | 94% | 1009.2 hPa | 0 mm | - | 0 W/m² | - |
| 1777511223 | 18.33° C | 94% | 1009.1 hPa | 0 mm | - | 0 W/m² | - |
| 1777510919 | 18.89° C | 93% | 1008.9 hPa | 0 mm | - | 0 W/m² | - |
| 1777510616 | 18.89° C | 92% | 1008.8 hPa | 0 mm | - | 0 W/m² | - |
| 1777510313 | 19.44° C | 91% | 1008.9 hPa | 0 mm | - | 0 W/m² | - |
| 1777510009 | 19.44° C | 89% | 1008.8 hPa | 0 mm | - | 0 W/m² | - |
| 1777509705 | 20° C | 89% | 1008.5 hPa | 0 mm | - | 0 W/m² | - |
| 1777509401 | 20° C | 88% | 1008.6 hPa | 0 mm | - | 0 W/m² | - |
| 1777509099 | 20° C | 87% | 1008.5 hPa | 0 mm | - | 0 W/m² | - |
| 1777508796 | 20.56° C | 86% | 1008.5 hPa | 0 mm | - | 0 W/m² | - |
| 1777508493 | 20.56° C | 85% | 1008.5 hPa | 0 mm | - | 0 W/m² | - |
| 1777508190 | 21.11° C | 85% | 1008.1 hPa | 0 mm | - | 1 W/m² | - |
| 1777507886 | 21.67° C | 82% | 1008.2 hPa | 0 mm | - | 1 W/m² | - |
| 1777507584 | 21.67° C | 81% | 1008.2 hPa | 0 mm | - | 2 W/m² | - |
| 1777507281 | 21.67° C | 81% | 1008.2 hPa | 0 mm | - | 3 W/m² | - |
| 1777506978 | 21.67° C | 81% | 1008.2 hPa | 0 mm | - | 5 W/m² | - |
| 1777506675 | 22.22° C | 80% | 1008.1 hPa | 0 mm | - | 10 W/m² | - |
| 1777506372 | 22.22° C | 80% | 1008.1 hPa | 0 mm | - | 13 W/m² | - |
| 1777506067 | 22.22° C | 80% | 1008 hPa | 0 mm | - | 17 W/m² | - |
| 1777505763 | 22.22° C | 80% | 1008.1 hPa | 0 mm | - | 23 W/m² | - |
| 1777505460 | 22.22° C | 79% | 1007.9 hPa | 0 mm | - | 24 W/m² | - |
| 1777505156 | 22.22° C | 79% | 1007.9 hPa | 0 mm | - | 23 W/m² | - |
* Rain latest hour (hover to see other rain measurements)
** Current wind speed in m/s (hover to see current wind gust speed)